| time (UTC) | temp C | wind direction | speed KPH | gust KPH | rain 1hr cm | rain 24hr cm | rain mn cm | humidity % | barometer mb |
| 20260505194026 | 21 | 11 | 4.8 | 16.1 | 0.00 | 0.00 | 0.00 | 39 | 1008.0 |
| 20260505193524 | 21 | 19 | 8.0 | 16.1 | 0.00 | 0.00 | 0.00 | 38 | 1008.0 |
| 20260505193040 | 21 | 32 | 1.6 | 17.7 | 0.00 | 0.00 | 0.00 | 38 | 1008.1 |
| 20260505192524 | 21 | 32 | 6.4 | 19.3 | 0.00 | 0.00 | 0.00 | 37 | 1008.1 |
| 20260505192028 | 21 | 340 | 1.6 | 16.1 | 0.00 | 0.00 | 0.00 | 39 | 1008.1 |
| 20260505191523 | 21 | 298 | 3.2 | 19.3 | 0.00 | 0.00 | 0.00 | 38 | 1008.1 |
| 20260505191023 | 21 | 319 | 8.0 | 19.3 | 0.00 | 0.00 | 0.00 | 38 | 1008.1 |
| 20260505190523 | 21 | 18 | 4.8 | 19.3 | 0.00 | 0.00 | 0.00 | 38 | 1008.1 |
| 20260505190030 | 21 | 42 | 8.0 | 19.3 | 0.00 | 0.00 | 0.00 | 37 | 1008.2 |
| 20260505185522 | 21 | 13 | 3.2 | 14.5 | 0.00 | 0.00 | 0.00 | 39 | 1008.1 |
| 20260505185022 | 21 | 344 | 4.8 | 16.1 | 0.00 | 0.00 | 0.00 | 40 | 1008.3 |
| 20260505184524 | 21 | 40 | 3.2 | 16.1 | 0.00 | 0.00 | 0.00 | 40 | 1008.2 |
| 20260505184020 | 20 | 36 | 3.2 | 16.1 | 0.00 | 0.00 | 0.00 | 40 | 1008.1 |
| 20260505183518 | 20 | 43 | 4.8 | 14.5 | 0.00 | 0.00 | 0.00 | 40 | 1008.1 |
| 20260505183027 | 20 | 15 | 4.8 | 14.5 | 0.00 | 0.00 | 0.00 | 42 | 1008.1 |
| 20260505182517 | 20 | 43 | 4.8 | 9.7 | 0.00 | 0.00 | 0.00 | 41 | 1008.1 |
| 20260505182017 | 20 | 31 | 0.0 | 16.1 | 0.00 | 0.00 | 0.00 | 43 | 1008.1 |
| 20260505181518 | 20 | 28 | 6.4 | 16.1 | 0.00 | 0.00 | 0.00 | 41 | 1008.2 |
| 20260505181021 | 20 | 20 | 0.0 | 12.9 | 0.00 | 0.00 | 0.00 | 44 | 1008.1 |
| 20260505180515 | 20 | 306 | 3.2 | 12.9 | 0.00 | 0.00 | 0.00 | 42 | 1008.1 |
| 20260505180030 | 20 | 326 | 1.6 | 12.9 | 0.00 | 0.00 | 0.00 | 43 | 1008.0 |
| 20260505175515 | 18 | 22 | 4.8 | 12.9 | 0.00 | 0.00 | 0.00 | 44 | 1008.0 |
| 20260505175023 | 18 | 290 | 3.2 | 11.3 | 0.00 | 0.00 | 0.00 | 45 | 1008.0 |
| 20260505174522 | 18 | 259 | 4.8 | 11.3 | 0.00 | 0.00 | 0.00 | 44 | 1008.1 |
| 20260505174016 | 19 | 329 | 4.8 | 9.7 | 0.00 | 0.00 | 0.00 | 42 | 1008.1 |
| 20260505173515 | 20 | 42 | 3.2 | 9.7 | 0.00 | 0.00 | 0.00 | 42 | 1008.1 |
| 20260505173012 | 19 | 360 | 1.6 | 6.4 | 0.00 | 0.00 | 0.00 | 43 | 1008.0 |
| 20260505172511 | 19 | 5 | 0.0 | 6.4 | 0.00 | 0.00 | 0.00 | 43 | 1008.0 |
| 20260505172020 | 19 | 5 | 1.6 | 6.4 | 0.00 | 0.00 | 0.00 | 43 | 1008.0 |
| 20260505171523 | 18 | 55 | 0.0 | 8.0 | 0.00 | 0.00 | 0.00 | 44 | 1008.1 |
| 20260505171011 | 18 | 63 | 3.2 | 14.5 | 0.00 | 0.00 | 0.00 | 44 | 1008.1 |
| 20260505170516 | 18 | 25 | 1.6 | 14.5 | 0.00 | 0.00 | 0.00 | 45 | 1008.1 |
| 20260505170014 | 18 | 28 | 6.4 | 12.9 | 0.00 | 0.00 | 0.00 | 44 | 1008.1 |
| 20260505165512 | 18 | 351 | 0.0 | 12.9 | 0.00 | 0.00 | 0.00 | 45 | 1008.0 |
| 20260505165009 | 18 | 25 | 3.2 | 12.9 | 0.00 | 0.00 | 0.00 | 45 | 1008.1 |
| 20260505164516 | 18 | 9 | 3.2 | 9.7 | 0.00 | 0.00 | 0.00 | 44 | 1008.0 |
| 20260505164007 | 18 | 32 | 3.2 | 12.9 | 0.00 | 0.00 | 0.00 | 45 | 1008.0 |
| 20260505163508 | 18 | 360 | 3.2 | 12.9 | 0.00 | 0.00 | 0.00 | 44 | 1008.0 |
| 20260505163009 | 18 | 38 | 1.6 | 8.0 | 0.00 | 0.00 | 0.00 | 46 | 1008.0 |
| 20260505162506 | 17 | 317 | 0.0 | 4.8 | 0.00 | 0.00 | 0.00 | 47 | 1007.9 |
| 20260505162006 | 17 | 317 | 1.6 | 6.4 | 0.00 | 0.00 | 0.00 | 48 | 1007.9 |
| 20260505161506 | 17 | 317 | 1.6 | 6.4 | 0.00 | 0.00 | 0.00 | 47 | 1007.9 |
| 20260505161006 | 17 | 317 | 0.0 | 8.0 | 0.00 | 0.00 | 0.00 | 48 | 1007.9 |
| 20260505160506 | 18 | 317 | 1.6 | 8.0 | 0.00 | 0.00 | 0.00 | 46 | 1007.9 |
| 20260505153002 | 17 | 92 | 3.2 | 6.4 | 0.00 | 0.00 | 0.00 | 46 | 1007.9 |
| 20260505152601 | 17 | 92 | 1.6 | 4.8 | 0.00 | 0.00 | 0.00 | 45 | 1007.9 |
| 20260505152101 | 17 | 92 | 1.6 | 6.4 | 0.00 | 0.00 | 0.00 | 45 | 1007.8 |
| 20260505151558 | 17 | 92 | 1.6 | 6.4 | 0.00 | 0.00 | 0.00 | 46 | 1007.8 |
| 20260505151058 | 16 | 92 | 1.6 | 6.4 | 0.00 | 0.00 | 0.00 | 46 | 1007.8 |
| 20260505150558 | 16 | 100 | 1.6 | 6.4 | 0.00 | 0.00 | 0.00 | 46 | 1007.8 |
| 20260505150114 | 16 | 108 | 3.2 | 6.4 | 0.00 | 0.00 | 0.00 | 47 | 1007.8 |
| 20260505140548 | 15 | 213 | 0.0 | 0.0 | 0.00 | 0.00 | 0.00 | 43 | 1007.2 |
| 20260505124542 | 13 | 215 | 0.0 | 0.0 | 0.00 | 0.00 | 0.00 | 48 | 1006.6 |
| 20260505124043 | 13 | 215 | 0.0 | 0.0 | 0.00 | 0.00 | 0.00 | 48 | 1006.7 |
| 20260505123542 | 13 | 215 | 0.0 | 0.0 | 0.00 | 0.00 | 0.00 | 48 | 1006.6 |
| 20260505123104 | 13 | 215 | 0.0 | 0.0 | 0.00 | 0.00 | 0.00 | 48 | 1006.6 |
| 20260505122540 | 13 | 215 | 0.0 | 0.0 | 0.00 | 0.00 | 0.00 | 48 | 1006.5 |
| 20260505122040 | 13 | 215 | 0.0 | 0.0 | 0.00 | 0.00 | 0.00 | 48 | 1006.5 |
| 20260505121541 | 13 | 215 | 0.0 | 0.0 | 0.00 | 0.00 | 0.00 | 48 | 1006.5 |
| 20260505121042 | 13 | 215 | 0.0 | 0.0 | 0.00 | 0.00 | 0.00 | 48 | 1006.4 |
| 20260505120539 | 13 | 215 | 0.0 | 0.0 | 0.00 | 0.00 | 0.00 | 48 | 1006.4 |
| 20260505120047 | 13 | 215 | 0.0 | 0.0 | 0.00 | 0.00 | 0.00 | 48 | 1006.3 |
| 20260505115536 | 13 | 215 | 0.0 | 0.0 | 0.00 | 0.00 | 0.00 | 47 | 1006.3 |
| 20260505115035 | 13 | 215 | 0.0 | 0.0 | 0.00 | 0.00 | 0.00 | 47 | 1006.2 |
| 20260505114546 | 14 | 215 | 0.0 | 0.0 | 0.00 | 0.00 | 0.00 | 47 | 1006.1 |
| 20260505114034 | 14 | 215 | 0.0 | 0.0 | 0.00 | 0.00 | 0.00 | 47 | 1006.1 |
| 20260505113533 | 14 | 215 | 0.0 | 0.0 | 0.00 | 0.00 | 0.00 | 47 | 1006.1 |
| 20260505113032 | 14 | 215 | 0.0 | 0.0 | 0.00 | 0.00 | 0.00 | 47 | 1006.0 |
| 20260505112532 | 14 | 215 | 0.0 | 0.0 | 0.00 | 0.00 | 0.00 | 46 | 1006.1 |
| 20260505112031 | 14 | 215 | 0.0 | 0.0 | 0.00 | 0.00 | 0.00 | 46 | 1006.0 |
| 20260505111531 | 13 | 215 | 0.0 | 0.0 | 0.00 | 0.00 | 0.00 | 46 | 1005.9 |
| 20260505111031 | 13 | 215 | 0.0 | 0.0 | 0.00 | 0.00 | 0.00 | 46 | 1005.9 |
| 20260505110531 | 13 | 215 | 0.0 | 0.0 | 0.00 | 0.00 | 0.00 | 46 | 1005.9 |
| 20260505102025 | 14 | 215 | 0.0 | 3.2 | 0.00 | 0.00 | 0.00 | 45 | 1005.8 |
| 20260505101525 | 14 | 215 | 0.0 | 3.2 | 0.00 | 0.00 | 0.00 | 44 | 1005.7 |
| 20260505101025 | 14 | 215 | 0.0 | 0.0 | 0.00 | 0.00 | 0.00 | 44 | 1005.8 |
| 20260505100524 | 15 | 215 | 0.0 | 0.0 | 0.00 | 0.00 | 0.00 | 43 | 1005.8 |
| 20260505100030 | 15 | 215 | 0.0 | 0.0 | 0.00 | 0.00 | 0.00 | 44 | 1005.7 |
| 20260505095522 | 15 | 215 | 0.0 | 0.0 | 0.00 | 0.00 | 0.00 | 43 | 1005.7 |
| 20260505095022 | 15 | 215 | 0.0 | 0.0 | 0.00 | 0.00 | 0.00 | 43 | 1005.7 |
| 20260505094522 | 15 | 215 | 0.0 | 0.0 | 0.00 | 0.00 | 0.00 | 43 | 1005.7 |
| 20260505094021 | 15 | 215 | 0.0 | 0.0 | 0.00 | 0.00 | 0.00 | 43 | 1005.7 |
| 20260505093521 | 15 | 215 | 0.0 | 0.0 | 0.00 | 0.00 | 0.00 | 43 | 1005.7 |
| 20260505093021 | 15 | 215 | 0.0 | 1.6 | 0.00 | 0.00 | 0.00 | 42 | 1005.7 |
| 20260505092521 | 15 | 215 | 0.0 | 4.8 | 0.00 | 0.00 | 0.00 | 43 | 1005.5 |
| 20260505092021 | 15 | 215 | 0.0 | 3.2 | 0.00 | 0.00 | 0.00 | 42 | 1005.5 |
| 20260505091530 | 15 | 215 | 0.0 | 3.2 | 0.00 | 0.00 | 0.00 | 43 | 1005.6 |
| 20260505091020 | 15 | 215 | 0.0 | 1.6 | 0.00 | 0.00 | 0.00 | 43 | 1005.5 |
| 20260505090520 | 15 | 215 | 0.0 | 8.0 | 0.00 | 0.00 | 0.00 | 43 | 1005.5 |
| 20260505090036 | 15 | 215 | 1.6 | 8.0 | 0.00 | 0.00 | 0.00 | 42 | 1005.5 |
| 20260505085519 | 15 | 215 | 1.6 | 8.0 | 0.00 | 0.00 | 0.00 | 43 | 1005.4 |
| 20260505085019 | 15 | 215 | 0.0 | 4.8 | 0.00 | 0.00 | 0.00 | 43 | 1005.4 |
| 20260505084522 | 15 | 215 | 0.0 | 4.8 | 0.00 | 0.00 | 0.00 | 42 | 1005.5 |
| 20260505084017 | 15 | 215 | 0.0 | 3.2 | 0.00 | 0.00 | 0.00 | 42 | 1005.6 |
| 20260505083517 | 15 | 215 | 0.0 | 3.2 | 0.00 | 0.00 | 0.00 | 41 | 1005.7 |
| 20260505083015 | 15 | 215 | 0.0 | 1.6 | 0.00 | 0.00 | 0.00 | 41 | 1005.6 |
| 20260505082514 | 15 | 215 | 0.0 | 1.6 | 0.00 | 0.00 | 0.00 | 40 | 1005.6 |
| 20260505082014 | 15 | 215 | 0.0 | 0.0 | 0.00 | 0.00 | 0.00 | 40 | 1005.6 |
| 20260505081516 | 15 | 215 | 0.0 | 0.0 | 0.00 | 0.00 | 0.00 | 39 | 1005.7 |
| 20260505081014 | 15 | 215 | 0.0 | 0.0 | 0.00 | 0.00 | 0.00 | 39 | 1005.6 |
| 20260505080512 | 16 | 215 | 0.0 | 1.6 | 0.00 | 0.00 | 0.00 | 39 | 1005.7 |
| 20260505080016 | 15 | 215 | 0.0 | 4.8 | 0.00 | 0.00 | 0.00 | 39 | 1005.7 |
| 20260505075512 | 15 | 215 | 0.0 | 4.8 | 0.00 | 0.00 | 0.00 | 40 | 1005.7 |
| 20260505075011 | 15 | 215 | 0.0 | 0.0 | 0.00 | 0.00 | 0.00 | 39 | 1005.7 |
| 20260505074510 | 15 | 215 | 0.0 | 0.0 | 0.00 | 0.00 | 0.00 | 39 | 1005.6 |
| 20260505074011 | 15 | 215 | 0.0 | 4.8 | 0.00 | 0.00 | 0.00 | 39 | 1005.6 |
| 20260505073509 | 15 | 215 | 0.0 | 8.0 | 0.00 | 0.00 | 0.00 | 39 | 1005.6 |
| 20260505073014 | 15 | 215 | 3.2 | 9.7 | 0.00 | 0.00 | 0.00 | 39 | 1005.5 |
| 20260505072507 | 15 | 215 | 4.8 | 9.7 | 0.00 | 0.00 | 0.00 | 39 | 1005.6 |
| 20260505072008 | 15 | 322 | 0.0 | 0.0 | 0.00 | 0.00 | 0.00 | 40 | 1005.5 |
| 20260505071508 | 15 | 323 | 0.0 | 0.0 | 0.00 | 0.00 | 0.00 | 39 | 1005.5 |
| 20260505071006 | 15 | 323 | 0.0 | 0.0 | 0.00 | 0.00 | 0.00 | 39 | 1005.4 |
| 20260505070505 | 15 | 323 | 0.0 | 0.0 | 0.00 | 0.00 | 0.00 | 39 | 1005.4 |
| 20260505070004 | 15 | 323 | 0.0 | 0.0 | 0.00 | 0.00 | 0.00 | 39 | 1005.4 |
| 20260505065504 | 15 | 323 | 0.0 | 0.0 | 0.00 | 0.00 | 0.00 | 39 | 1005.3 |
| 20260505065004 | 15 | 323 | 0.0 | 0.0 | 0.00 | 0.00 | 0.00 | 39 | 1005.2 |
| 20260505064503 | 15 | 323 | 0.0 | 0.0 | 0.00 | 0.00 | 0.00 | 38 | 1005.2 |
| 20260505064006 | 16 | 324 | 0.0 | 0.0 | 0.00 | 0.00 | 0.00 | 38 | 1005.1 |
| 20260505063506 | 16 | 324 | 0.0 | 0.0 | 0.00 | 0.00 | 0.00 | 38 | 1005.1 |
| 20260505063005 | 16 | 324 | 0.0 | 0.0 | 0.00 | 0.00 | 0.00 | 37 | 1005.0 |
| 20260505062503 | 16 | 324 | 0.0 | 0.0 | 0.00 | 0.00 | 0.00 | 37 | 1005.0 |
| 20260505062002 | 16 | 324 | 0.0 | 0.0 | 0.00 | 0.00 | 0.00 | 37 | 1005.0 |
| 20260505061507 | 17 | 324 | 0.0 | 3.2 | 0.00 | 0.00 | 0.00 | 36 | 1005.0 |
| 20260505061003 | 17 | 324 | 0.0 | 4.8 | 0.00 | 0.00 | 0.00 | 36 | 1004.9 |
| 20260505060508 | 17 | 324 | 1.6 | 4.8 | 0.00 | 0.00 | 0.00 | 36 | 1004.9 |
| 20260505060002 | 17 | 324 | 0.0 | 9.7 | 0.00 | 0.00 | 0.00 | 36 | 1004.8 |
| 20260505055502 | 17 | 325 | 0.0 | 9.7 | 0.00 | 0.00 | 0.00 | 37 | 1004.8 |
| 20260505055003 | 17 | 287 | 1.6 | 8.0 | 0.00 | 0.00 | 0.00 | 37 | 1004.8 |
| 20260505054502 | 17 | 305 | 0.0 | 8.0 | 0.00 | 0.00 | 0.00 | 37 | 1004.8 |
| 20260505054001 | 17 | 303 | 1.6 | 11.3 | 0.00 | 0.00 | 0.00 | 37 | 1004.7 |
| 20260505053501 | 17 | 302 | 1.6 | 11.3 | 0.00 | 0.00 | 0.00 | 37 | 1004.7 |
| 20260505053001 | 17 | 314 | 3.2 | 16.1 | 0.00 | 0.00 | 0.00 | 38 | 1004.7 |
| 20260505052502 | 17 | 306 | 4.8 | 16.1 | 0.00 | 0.00 | 0.00 | 39 | 1004.7 |
| 20260505052001 | 17 | 285 | 1.6 | 8.0 | 0.00 | 0.00 | 0.00 | 41 | 1004.7 |
| 20260505051500 | 17 | 284 | 0.0 | 4.8 | 0.00 | 0.00 | 0.00 | 42 | 1004.7 |
| 20260505051002 | 17 | 286 | 0.0 | 1.6 | 0.00 | 0.00 | 0.00 | 42 | 1004.7 |
| 20260505050600 | 17 | 286 | 0.0 | 3.2 | 0.00 | 0.00 | 0.00 | 43 | 1004.7 |
| 20260505050128 | 17 | 286 | 0.0 | 6.4 | 0.00 | 0.00 | 0.00 | 43 | 1004.6 |
| 20260505041610 | 18 | 290 | 1.6 | 11.3 | 0.00 | 0.00 | 0.00 | 35 | 1004.1 |
| 20260505041058 | 18 | 301 | 1.6 | 8.0 | 0.00 | 0.00 | 0.00 | 33 | 1004.0 |
| 20260505040601 | 18 | 50 | 0.0 | 3.2 | 0.00 | 0.00 | 0.00 | 29 | 1004.1 |
| 20260505035602 | 18 | 51 | 0.0 | 1.6 | 0.00 | 0.00 | 0.00 | 29 | 1003.9 |
| 20260505035057 | 18 | 51 | 0.0 | 3.2 | 0.00 | 0.00 | 0.00 | 29 | 1003.8 |
| 20260505034557 | 18 | 51 | 0.0 | 3.2 | 0.00 | 0.00 | 0.00 | 28 | 1003.7 |
| 20260505034058 | 19 | 51 | 0.0 | 4.8 | 0.00 | 0.00 | 0.00 | 28 | 1003.7 |
| 20260505033558 | 19 | 51 | 1.6 | 4.8 | 0.00 | 0.00 | 0.00 | 27 | 1003.7 |
| 20260505033057 | 19 | 51 | 0.0 | 3.2 | 0.00 | 0.00 | 0.00 | 27 | 1003.6 |
| 20260505032558 | 19 | 51 | 0.0 | 6.4 | 0.00 | 0.00 | 0.00 | 27 | 1003.5 |
| 20260505032100 | 20 | 51 | 0.0 | 6.4 | 0.00 | 0.00 | 0.00 | 27 | 1003.4 |
| 20260505031600 | 20 | 51 | 0.0 | 6.4 | 0.00 | 0.00 | 0.00 | 27 | 1003.3 |
| 20260505031056 | 20 | 51 | 1.6 | 8.0 | 0.00 | 0.00 | 0.00 | 26 | 1003.3 |
| 20260505030556 | 20 | 52 | 0.0 | 12.9 | 0.00 | 0.00 | 0.00 | 26 | 1003.3 |
| 20260505030056 | 20 | 360 | 4.8 | 12.9 | 0.00 | 0.00 | 0.00 | 26 | 1003.2 |
| 20260505025555 | 21 | 21 | 4.8 | 12.9 | 0.00 | 0.00 | 0.00 | 25 | 1003.2 |
| 20260505025056 | 21 | 37 | 6.4 | 19.3 | 0.00 | 0.00 | 0.00 | 25 | 1003.1 |
| 20260505024555 | 21 | 355 | 6.4 | 19.3 | 0.00 | 0.00 | 0.00 | 26 | 1003.0 |
| 20260505024054 | 21 | 28 | 6.4 | 19.3 | 0.00 | 0.00 | 0.00 | 26 | 1003.0 |
| 20260505023554 | 21 | 48 | 8.0 | 19.3 | 0.00 | 0.00 | 0.00 | 25 | 1002.9 |
| 20260505023055 | 21 | 26 | 4.8 | 19.3 | 0.00 | 0.00 | 0.00 | 25 | 1002.9 |
| 20260505022554 | 21 | 28 | 4.8 | 25.7 | 0.00 | 0.00 | 0.00 | 25 | 1002.9 |
| 20260505022054 | 22 | 29 | 8.0 | 25.7 | 0.00 | 0.00 | 0.00 | 26 | 1002.9 |
| 20260505021555 | 22 | 50 | 6.4 | 24.1 | 0.00 | 0.00 | 0.00 | 25 | 1002.9 |
| 20260505021053 | 22 | 19 | 12.9 | 24.1 | 0.00 | 0.00 | 0.00 | 25 | 1002.8 |
| 20260505020553 | 22 | 38 | 6.4 | 19.3 | 0.00 | 0.00 | 0.00 | 25 | 1002.8 |
| 20260505020054 | 22 | 20 | 6.4 | 20.9 | 0.00 | 0.00 | 0.00 | 25 | 1002.8 |
| 20260505015554 | 22 | 355 | 6.4 | 20.9 | 0.00 | 0.00 | 0.00 | 26 | 1002.8 |
| 20260505015053 | 22 | 32 | 8.0 | 22.5 | 0.00 | 0.00 | 0.00 | 25 | 1002.8 |
| 20260505014605 | 22 | 44 | 11.3 | 22.5 | 0.00 | 0.00 | 0.00 | 25 | 1002.8 |
| 20260505014053 | 22 | 27 | 4.8 | 14.5 | 0.00 | 0.00 | 0.00 | 26 | 1002.9 |
| 20260505013551 | 22 | 13 | 4.8 | 24.1 | 0.00 | 0.00 | 0.00 | 26 | 1002.9 |
| 20260505013052 | 22 | 40 | 11.3 | 24.1 | 0.00 | 0.00 | 0.00 | 26 | 1002.9 |
| 20260505012551 | 22 | 38 | 9.7 | 22.5 | 0.00 | 0.00 | 0.00 | 25 | 1002.9 |
| 20260505012051 | 22 | 51 | 3.2 | 20.9 | 0.00 | 0.00 | 0.00 | 26 | 1003.0 |
| 20260505011553 | 22 | 355 | 6.4 | 20.9 | 0.00 | 0.00 | 0.00 | 26 | 1002.9 |
| 20260505011051 | 22 | 23 | 4.8 | 17.7 | 0.00 | 0.00 | 0.00 | 27 | 1002.9 |
| 20260505010550 | 22 | 56 | 4.8 | 19.3 | 0.00 | 0.00 | 0.00 | 27 | 1003.0 |
| 20260505010050 | 22 | 22 | 4.8 | 19.3 | 0.00 | 0.00 | 0.00 | 28 | 1003.0 |
| 20260505005550 | 22 | 15 | 4.8 | 14.5 | 0.00 | 0.00 | 0.00 | 28 | 1003.1 |
| 20260505005050 | 22 | 5 | 4.8 | 14.5 | 0.00 | 0.00 | 0.00 | 28 | 1003.2 |
| 20260505004550 | 22 | 23 | 0.0 | 9.7 | 0.00 | 0.00 | 0.00 | 28 | 1003.2 |
| 20260505004049 | 22 | 26 | 3.2 | 9.7 | 0.00 | 0.00 | 0.00 | 28 | 1003.2 |
| 20260505003549 | 22 | 344 | 1.6 | 9.7 | 0.00 | 0.00 | 0.00 | 28 | 1003.2 |
| 20260505003049 | 23 | 355 | 3.2 | 8.0 | 0.00 | 0.00 | 0.00 | 28 | 1003.1 |
| 20260505002551 | 23 | 338 | 3.2 | 8.0 | 0.00 | 0.00 | 0.00 | 28 | 1003.1 |
| 20260505002049 | 23 | 327 | 1.6 | 8.0 | 0.00 | 0.00 | 0.00 | 28 | 1003.2 |
| 20260505001602 | 23 | 337 | 0.0 | 16.1 | 0.00 | 0.00 | 0.00 | 28 | 1003.0 |
| 20260505001048 | 23 | 26 | 3.2 | 16.1 | 0.00 | 0.00 | 0.00 | 28 | 1003.2 |
| 20260505000548 | 23 | 9 | 4.8 | 17.7 | 0.00 | 0.00 | 0.00 | 27 | 1003.2 |
| 20260505000105 | 25 | 42 | 8.0 | 20.9 | 0.00 | 0.00 | 0.00 | 26 | 1003.1 |
| 20260504235548 | 25 | 22 | 8.0 | 20.9 | 0.00 | 0.00 | 0.00 | 24 | 1003.0 |
| 20260504235047 | 26 | 323 | 6.4 | 17.7 | 0.00 | 0.00 | 0.00 | 24 | 1003.0 |
| 20260504234605 | 26 | 319 | 3.2 | 14.5 | 0.00 | 0.00 | 0.00 | 23 | 1003.1 |
| 20260504234046 | 26 | 74 | 3.2 | 17.7 | 0.00 | 0.00 | 0.00 | 24 | 1003.0 |
| 20260504233549 | 26 | 360 | 4.8 | 17.7 | 0.00 | 0.00 | 0.00 | 23 | 1003.0 |
| 20260504233050 | 26 | 284 | 6.4 | 19.3 | 0.00 | 0.00 | 0.00 | 23 | 1003.0 |
| 20260504232544 | 26 | 340 | 4.8 | 20.9 | 0.00 | 0.00 | 0.00 | 23 | 1003.2 |
| 20260504232042 | 26 | 328 | 11.3 | 20.9 | 0.00 | 0.00 | 0.00 | 23 | 1003.2 |
| 20260504231541 | 25 | 315 | 6.4 | 19.3 | 0.00 | 0.00 | 0.00 | 24 | 1003.3 |
| 20260504231041 | 25 | 31 | 1.6 | 12.9 | 0.00 | 0.00 | 0.00 | 25 | 1003.3 |
| 20260504230540 | 23 | 329 | 3.2 | 17.7 | 0.00 | 0.00 | 0.00 | 26 | 1003.5 |
| 20260504230041 | 23 | 13 | 3.2 | 19.3 | 0.00 | 0.00 | 0.00 | 27 | 1003.6 |
| 20260504225541 | 23 | 36 | 8.0 | 20.9 | 0.00 | 0.00 | 0.00 | 27 | 1003.5 |
| 20260504225043 | 23 | 42 | 8.0 | 20.9 | 0.00 | 0.00 | 0.00 | 26 | 1003.5 |
| 20260504224548 | 24 | 355 | 4.8 | 27.4 | 0.00 | 0.00 | 0.00 | 26 | 1003.5 |
| 20260504224039 | 23 | 15 | 6.4 | 27.4 | 0.00 | 0.00 | 0.00 | 26 | 1003.6 |
| 20260504223541 | 25 | 30 | 8.0 | 24.1 | 0.00 | 0.00 | 0.00 | 25 | 1003.6 |
| 20260504223043 | 25 | 26 | 11.3 | 22.5 | 0.00 | 0.00 | 0.00 | 24 | 1003.6 |
| 20260504222536 | 25 | 16 | 4.8 | 16.1 | 0.00 | 0.00 | 0.00 | 24 | 1003.6 |
| 20260504222036 | 25 | 283 | 6.4 | 16.1 | 0.00 | 0.00 | 0.00 | 25 | 1003.7 |
| 20260504221537 | 25 | 315 | 4.8 | 19.3 | 0.00 | 0.00 | 0.00 | 25 | 1003.8 |
| 20260504221035 | 25 | 12 | 6.4 | 20.9 | 0.00 | 0.00 | 0.00 | 24 | 1003.9 |
| 20260504220537 | 25 | 304 | 4.8 | 20.9 | 0.00 | 0.00 | 0.00 | 24 | 1004.0 |
| 20260504220036 | 25 | 284 | 8.0 | 20.9 | 0.00 | 0.00 | 0.00 | 25 | 1003.9 |
| 20260504215533 | 25 | 296 | 4.8 | 22.5 | 0.00 | 0.00 | 0.00 | 24 | 1004.0 |
| 20260504215031 | 25 | 301 | 6.4 | 22.5 | 0.00 | 0.00 | 0.00 | 25 | 1004.2 |
| 20260504214530 | 24 | 9 | 1.6 | 11.3 | 0.00 | 0.00 | 0.00 | 25 | 1004.1 |
| 20260504214030 | 25 | 318 | 1.6 | 19.3 | 0.00 | 0.00 | 0.00 | 24 | 1004.1 |
| 20260504213529 | 24 | 304 | 6.4 | 19.3 | 0.00 | 0.00 | 0.00 | 25 | 1004.1 |
| 20260504213050 | 25 | 313 | 9.7 | 22.5 | 0.00 | 0.00 | 0.00 | 25 | 1004.2 |
| 20260504212528 | 25 | 42 | 9.7 | 22.5 | 0.00 | 0.00 | 0.00 | 24 | 1004.2 |
| 20260504212027 | 25 | 248 | 4.8 | 16.1 | 0.00 | 0.00 | 0.00 | 24 | 1004.2 |
| 20260504211526 | 24 | 19 | 6.4 | 22.5 | 0.00 | 0.00 | 0.00 | 26 | 1004.2 |
| 20260504211025 | 24 | 290 | 9.7 | 22.5 | 0.00 | 0.00 | 0.00 | 26 | 1004.3 |
| 20260504210525 | 23 | 17 | 1.6 | 22.5 | 0.00 | 0.00 | 0.00 | 26 | 1004.3 |
| 20260504210026 | 23 | 41 | 6.4 | 22.5 | 0.00 | 0.00 | 0.00 | 26 | 1004.4 |
| 20260504205525 | 24 | 48 | 4.8 | 19.3 | 0.00 | 0.00 | 0.00 | 26 | 1004.5 |
| 20260504205023 | 24 | 74 | 6.4 | 20.9 | 0.00 | 0.00 | 0.00 | 26 | 1004.5 |
| 20260504204523 | 24 | 338 | 6.4 | 20.9 | 0.00 | 0.00 | 0.00 | 26 | 1004.5 |
| 20260504204022 | 23 | 355 | 4.8 | 20.9 | 0.00 | 0.00 | 0.00 | 27 | 1004.5 |
| 20260504203523 | 23 | 24 | 4.8 | 17.7 | 0.00 | 0.00 | 0.00 | 26 | 1004.6 |
| 20260504203023 | 23 | 11 | 6.4 | 20.9 | 0.00 | 0.00 | 0.00 | 25 | 1004.7 |
| 20260504202523 | 23 | 38 | 9.7 | 29.0 | 0.00 | 0.00 | 0.00 | 26 | 1004.7 |
| 20260504202022 | 24 | 46 | 6.4 | 29.0 | 0.00 | 0.00 | 0.00 | 26 | 1004.6 |
| 20260504201526 | 24 | 331 | 4.8 | 17.7 | 0.00 | 0.00 | 0.00 | 26 | 1004.7 |
| 20260504201025 | 25 | 355 | 4.8 | 16.1 | 0.00 | 0.00 | 0.00 | 26 | 1004.8 |
| 20260504200521 | 24 | 37 | 6.4 | 12.9 | 0.00 | 0.00 | 0.00 | 26 | 1004.9 |
| 20260504200021 | 25 | 312 | 4.8 | 16.1 | 0.00 | 0.00 | 0.00 | 26 | 1004.8 |
| 20260504195521 | 25 | 58 | 4.8 | 16.1 | 0.00 | 0.00 | 0.00 | 27 | 1004.8 |
| 20260504195019 | 25 | 5 | 1.6 | 14.5 | 0.00 | 0.00 | 0.00 | 27 | 1004.8 |
| 20260504194520 | 24 | 313 | 4.8 | 14.5 | 0.00 | 0.00 | 0.00 | 26 | 1004.9 |